User: anonymous   Login
Location: Bittelbronn
(48.4454°N, 8.5870°E)
Time: 01:03:24
(UTC+00:00)
Language:

Cosmos 1733 Rocket - Orbit

View from above orbital plane
View from above orbital plane
View from above satellite
View from above satellite

Ground track
Ground track

The orbit data is extracted from the following two-line orbital elements,

1 16612U 86018B   24194.58506270  .00000702  00000-0  78418-4 0  9993
2 16612  82.5154  32.5295 0015690 266.0045  93.9377 14.85492874953460
Epoch (UTC): 12 July 2024 14:02:29
Eccentricity: 0.0015690
inclination: 82.5154°
perigee height: 601 km
apogee height: 623 km
right ascension of ascending node: 32.5295°
argument of perigee: 266.0045°
revolutions per day: 14.85492874
mean anomaly at epoch: 93.9377°
orbit number at epoch: 95346

The dashed part of the orbit path shows where the satellite is in the earth's shadow,  

DLR